Location: Beadle
(51.4667°N, 109.0000°W)
Time: 02:08:41
(UTC+00:00)

CAS-4A - Visible Passes

Search period start: 02 July 2022 00:00
Search period end: 12 July 2022 00:00
Orbit: 523 x 536 km, 43.0° (Epoch: 01 July)

Date Brightness Start Highest point End Pass type
(mag) Time Alt. Az. Time Alt. Az. Time Alt. Az.
02 Jul ? 09:44:42 12° SSW 09:47:09 20° SSE 09:50:07 10° ESE visible
03 Jul ? 09:32:24 14° SSW 09:34:31 21° SSE 09:37:36 10° ESE visible
04 Jul ? 09:20:07 17° SSW 09:21:52 22° S 09:25:03 10° ESE visible
05 Jul ? 09:07:50 19° SSW 09:09:14 23° S 09:12:28 10° ESE visible
06 Jul ? 08:55:37 22° SSW 08:56:36 24° S 08:59:52 10° ESE visible
07 Jul ? 08:43:27 24° S 08:43:57 24° S 08:47:15 10° ESE visible
07 Jul ? 10:20:15 10° WSW 10:23:13 20° SSW 10:26:11 10° SSE visible
08 Jul ? 08:31:28 25° S 08:31:28 25° S 08:34:37 10° SE visible
08 Jul ? 10:07:45 10° WSW 10:10:33 18° SSW 10:13:22 10° SSE visible
09 Jul ? 08:19:50 21° SSE 08:19:50 21° SSE 08:21:58 10° SE visible
09 Jul ? 09:55:15 10° WSW 09:57:53 17° SSW 10:00:30 10° SSE visible
10 Jul ? 08:08:53 12° SE 08:08:53 12° SE 08:09:18 10° SE visible
10 Jul ? 09:44:11 14° SW 09:45:11 15° SSW 09:47:34 10° SSE visible
11 Jul ? 09:34:27 10° S 09:34:27 10° S 09:34:33 10° S visible
